Roanoke, VA

11:00 PM EDT on October 23, 2019 (GMT -0400)
Roanoke Regional-Woodrum

Weather History for KROA - August, 2019

Change the Weather History Date:

Thursday, August 1, 2019

  Actual Average Record
Temperature  
Mean Temperature 78 °F 76 °F  
Max Temperature 90 °F 87 °F 97 °F (1953)
Min Temperature 66 °F 66 °F 54 °F (1997)
Degree Days  
Heating Degree Days 0 0  
Month to date heating degree days 0 0  
Since 1 June heating degree days 0 11  
Since 1 July heating degree days 0 0  
Cooling Degree Days 13 12  
Month to date cooling degree days 13 12  
Year to date cooling degree days 996 735  
Since 1 June cooling degree days 717 619  
Growing Degree Days 28 (Base 50)    
Moisture  
Dew Point 66 °F    
Average Humidity 72    
Maximum Humidity 93    
Minimum Humidity 50    
Precipitation  
Precipitation 0.25 in 0.11 in 2.70 in (1923)
Month to date precipitation 0.25 0.11  
Year to date precipitation 27.82 24.68  
Snow  
Snow 0.00 in - - ()
Month to date snowfall 0.0  
Since 1 June snowfall T  
Since 1 July snowfall T  
Snow Depth 0.00 in    
Sea Level Pressure  
Sea Level Pressure 30.11 in    
Wind  
Wind Speed 4 mph (North)    
Max Wind Speed 24 mph    
Max Gust Speed 33 mph    
Visibility 10 miles    
Events Rain , Thunderstorm    
T = Trace of Precipitation, MM = Missing Value Source: NWS Daily Summary

Daily Weather History Graph

Daily Weather History Graph

Search for Another Location

Airport or City:

Astronomy

Aug. 01, 2019 Rise Set
Actual Time 6:24 AM EDT 8:27 PM EDT
Civil Twilight 5:55 AM EDT 8:56 PM EDT
Nautical Twilight 5:20 AM EDT 9:31 PM EDT
Astronomical Twilight 4:41 AM EDT 10:09 PM EDT
Moon 6:47 AM EDT (8/1) 9:14 PM EDT (8/1)
Length of Visible Light 15h 01m
Length of Day
14h 03m
New Moon, 0% of the Moon is Illuminated
Aug 1
New Moon
Aug 7
First Quarter
Aug 15
Full
Aug 23
Last Quarter
Aug 30
New

Hourly Weather History & Observations

Time (EDT) Temp. Heat Index Dew Point Humidity Pressure Visibility Wind Dir Wind Speed Gust Speed Precip Events Conditions
12:54 AM 70.0 °F - 64.9 °F 84% 30.09 in 10.0 mi NE 3.5 mph - N/A   Clear
1:54 AM 68.0 °F - 64.9 °F 90% 30.09 in 10.0 mi Calm Calm - N/A   Clear
2:54 AM 69.1 °F - 64.9 °F 87% 30.09 in 10.0 mi North 10.4 mph - N/A   Clear
3:54 AM 66.9 °F - 64.9 °F 93% 30.10 in 10.0 mi NW 4.6 mph - N/A   Clear
4:54 AM 68.0 °F - 64.9 °F 90% 30.10 in 10.0 mi NNE 5.8 mph - N/A   Clear
5:43 AM 66.9 °F - 64.9 °F 93% 30.14 in 10.0 mi East 3.5 mph - N/A   Partly Cloudy
5:54 AM 66.9 °F - 64.9 °F 93% 30.10 in 10.0 mi Calm Calm - N/A   Scattered Clouds
6:54 AM 66.9 °F - 64.0 °F 90% 30.11 in 10.0 mi Variable 3.5 mph - N/A   Partly Cloudy
7:18 AM 66.9 °F - 64.0 °F 90% 30.15 in 10.0 mi Calm Calm - N/A   Mostly Cloudy
7:54 AM 68.0 °F - 64.9 °F 90% 30.13 in 10.0 mi Variable 3.5 mph - N/A   Mostly Cloudy
8:29 AM 70.0 °F - 66.0 °F 87% 30.17 in 10.0 mi North 3.5 mph - N/A   Scattered Clouds
8:54 AM 72.0 °F - 66.0 °F 81% 30.14 in 10.0 mi Variable 3.5 mph - N/A   Partly Cloudy
9:54 AM 75.0 °F - 66.9 °F 76% 30.14 in 10.0 mi ENE 4.6 mph - N/A   Clear
10:54 AM 79.0 °F - 68.0 °F 69% 30.14 in 10.0 mi Variable 4.6 mph - N/A   Partly Cloudy
11:54 AM 82.0 °F 85.5 °F 69.1 °F 65% 30.13 in 10.0 mi Variable 6.9 mph - N/A   Partly Cloudy
12:54 PM 84.9 °F 87.6 °F 66.9 °F 55% 30.12 in 10.0 mi Variable 4.6 mph - N/A   Partly Cloudy
1:54 PM 86.0 °F 88.2 °F 66.0 °F 51% 30.10 in 10.0 mi Variable 4.6 mph - N/A   Scattered Clouds
2:54 PM 87.1 °F 89.2 °F 66.0 °F 49% 30.07 in 10.0 mi NE 6.9 mph - N/A   Mostly Cloudy
3:24 PM 88.0 °F 89.6 °F 64.9 °F 46% 30.10 in 10.0 mi SSE 9.2 mph - N/A Thunderstorm Thunderstorm
3:54 PM 75.0 °F - 68.0 °F 79% 30.08 in 6.0 mi SW 12.7 mph 24.2 mph 0.03 in Rain , Thunderstorm Heavy Thunderstorms and Rain
4:01 PM 72.0 °F - 68.0 °F 87% 30.11 in 5.0 mi WNW 13.8 mph 34.5 mph 0.10 in Rain , Thunderstorm Heavy Thunderstorms and Rain
4:11 PM 72.0 °F - 63.0 °F 73% 30.11 in 6.0 mi NE 6.9 mph - 0.19 in Rain , Thunderstorm Heavy Thunderstorms and Rain
4:46 PM 73.0 °F - 66.9 °F 81% 30.09 in 10.0 mi West 3.5 mph - 0.22 in   Mostly Cloudy
4:54 PM 73.0 °F - 68.0 °F 84% 30.06 in 10.0 mi West 4.6 mph - 0.22 in   Mostly Cloudy
5:54 PM 72.0 °F - 69.1 °F 91% 30.07 in 10.0 mi West 4.6 mph - N/A   Mostly Cloudy
6:54 PM 73.9 °F - 68.0 °F 82% 30.06 in 10.0 mi NNW 5.8 mph - 0.00 in Rain Light Rain
7:54 PM 75.0 °F - 69.1 °F 82% 30.09 in 10.0 mi WNW 4.6 mph - 0.00 in   Mostly Cloudy
8:54 PM 73.9 °F - 68.0 °F 82% 30.11 in 10.0 mi South 6.9 mph - N/A   Mostly Cloudy
9:12 PM 73.9 °F - 69.1 °F 85% 30.14 in 10.0 mi North 11.5 mph - N/A Thunderstorm Thunderstorm
9:54 PM 73.9 °F - 66.0 °F 76% 30.13 in 10.0 mi East 11.5 mph - N/A Thunderstorm Thunderstorm
10:54 PM 69.1 °F - 63.0 °F 81% 30.13 in 10.0 mi Variable 3.5 mph - 0.00 in Rain , Thunderstorm Light Thunderstorms and Rain
11:54 PM 68.0 °F - 63.0 °F 84% 30.13 in 10.0 mi Calm Calm - 0.00 in   Overcast